User: anonymous   Login
Location: Unspecified
(0.0000°N, 0.0000°E)
Time: 04:02:31
(UTC+00:00)
Language:

Aussat K2 - Orbit

View from above orbital plane
View from above orbital plane
View from above satellite
View from above satellite

Ground track
Ground track

The orbit data is extracted from the following two-line orbital elements,

1 16275U 85109C   14304.81309380  .00000044  00000-0  00000+0 0  5384
2 16275 014.7433 018.9975 0006241 183.1426 193.7953 00.99933344 95647
Epoch (UTC): 31 October 2014 19:30:51
Eccentricity: 0.0006241
inclination: 14.7433°
perigee height: 35855 km
apogee height: 35908 km
right ascension of ascending node: 18.9975°
argument of perigee: 183.1426°
revolutions per day: 0.99933344
mean anomaly at epoch: 193.7953°
orbit number at epoch: 9564

The dashed part of the orbit path shows where the satellite is in the earth's shadow,  

DLR